Hourly Weather Vanadzor

Today, 20 September, Sunday

Time Temperature Precipitation Wind Pressure Humidity
00:00 +13°C° 0 mm 1 mps 635 mmHg 73%
01:00 +12°C° 0 mm 1 mps 635 mmHg 75%
02:00 +11°C° 0 mm 0 mps 635 mmHg 76%
03:00 +11°C° 0 mm 0 mps 636 mmHg 76%
04:00 +11°C° 0 mm 0 mps 636 mmHg 78%
05:00 +10°C° 0 mm 0 mps 636 mmHg 80%
06:00 +11°C° 0 mm 1 mps 636 mmHg 83%
07:00 +12°C° 0 mm 1 mps 636 mmHg 78%
08:00 +14°C° 0 mm 2 mps 637 mmHg 73%
09:00 +16°C° 0 mm 2 mps 637 mmHg 69%
10:00 +17°C° 0 mm 2 mps 637 mmHg 68%
11:00 +17°C° 0 mm 2 mps 637 mmHg 66%
12:00 +18°C° 0 mm 2 mps 637 mmHg 65%
13:00 +18°C° 0.1 mm 2 mps 637 mmHg 65%
14:00 +18°C° 0.1 mm 2 mps 636 mmHg 65%
15:00 +19°C° 0.1 mm 2 mps 636 mmHg 65%
16:00 +17°C° 0 mm 2 mps 636 mmHg 71%
17:00 +16°C° 0 mm 2 mps 635 mmHg 78%
18:00 +14°C° 0 mm 2 mps 635 mmHg 84%
19:00 +14°C° 0 mm 2 mps 635 mmHg 86%
20:00 +13°C° 0 mm 1 mps 636 mmHg 88%
21:00 +13°C° 0 mm 1 mps 636 mmHg 91%
22:00 +12°C° 0 mm 1 mps 636 mmHg 91%
23:00 +12°C° 0 mm 1 mps 636 mmHg 92%

Tomorrow, 21 September, Monday

Time Temperature Precipitation Wind Pressure Humidity
00:00 +11°C° 0 mm 1 mps 636 mmHg 92%
01:00 +11°C° 0 mm 1 mps 636 mmHg 93%
02:00 +11°C° 0 mm 1 mps 636 mmHg 93%
03:00 +10°C° 0 mm 1 mps 636 mmHg 93%
04:00 +11°C° 0 mm 1 mps 636 mmHg 93%
05:00 +11°C° 0 mm 1 mps 637 mmHg 93%
06:00 +11°C° 0 mm 1 mps 637 mmHg 93%
07:00 +12°C° 0 mm 1 mps 637 mmHg 89%
08:00 +13°C° 0 mm 2 mps 638 mmHg 85%
09:00 +14°C° 0 mm 2 mps 638 mmHg 82%
10:00 +15°C° 0 mm 2 mps 638 mmHg 80%
11:00 +16°C° 0 mm 2 mps 638 mmHg 77%
12:00 +17°C° 0 mm 3 mps 638 mmHg 75%
13:00 +17°C° 0.1 mm 3 mps 638 mmHg 77%
14:00 +16°C° 0.1 mm 3 mps 638 mmHg 79%
15:00 +16°C° 0.1 mm 3 mps 637 mmHg 80%
16:00 +15°C° 0 mm 2 mps 637 mmHg 85%
17:00 +15°C° 0 mm 2 mps 637 mmHg 89%
18:00 +14°C° 0 mm 2 mps 637 mmHg 93%
19:00 +13°C° 0 mm 2 mps 637 mmHg 94%
20:00 +13°C° 0 mm 1 mps 637 mmHg 95%
21:00 +13°C° 0 mm 1 mps 638 mmHg 95%
22:00 +13°C° 0.1 mm 1 mps 638 mmHg 95%
23:00 +13°C° 0.1 mm 1 mps 638 mmHg 95%

Day after tomorrow, 22 September, Tuesday

Time Temperature Precipitation Wind Pressure Humidity
00:00 +12°C° 0.1 mm 1 mps 637 mmHg 95%
01:00 +12°C° 0.1 mm 1 mps 637 mmHg 95%
02:00 +12°C° 0.1 mm 1 mps 637 mmHg 96%
03:00 +12°C° 0.1 mm 1 mps 637 mmHg 96%
04:00 +12°C° 0 mm 1 mps 637 mmHg 96%
05:00 +12°C° 0 mm 1 mps 637 mmHg 96%
06:00 +12°C° 0 mm 1 mps 637 mmHg 95%
07:00 +14°C° 0 mm 1 mps 638 mmHg 88%
08:00 +15°C° 0 mm 1 mps 638 mmHg 81%
09:00 +18°C° 0 mm 1 mps 639 mmHg 74%
10:00 +19°C° 0.2 mm 1 mps 639 mmHg 70%
11:00 +19°C° 0.2 mm 2 mps 639 mmHg 66%
12:00 +20°C° 0.2 mm 2 mps 639 mmHg 63%
13:00 +20°C° 0.4 mm 2 mps 638 mmHg 65%
14:00 +19°C° 0.4 mm 2 mps 638 mmHg 67%
15:00 +19°C° 0.4 mm 2 mps 637 mmHg 69%
16:00 +18°C° 0.5 mm 2 mps 637 mmHg 77%
17:00 +16°C° 0.5 mm 2 mps 637 mmHg 84%
18:00 +15°C° 0.5 mm 2 mps 637 mmHg 92%
19:00 +14°C° 0.4 mm 2 mps 637 mmHg 93%
20:00 +14°C° 0.4 mm 2 mps 637 mmHg 93%
21:00 +14°C° 0.4 mm 1 mps 638 mmHg 94%
22:00 +13°C° 0 mm 1 mps 637 mmHg 94%
23:00 +13°C° 0 mm 1 mps 637 mmHg 94%

23 September, Wednesday

Time Temperature Precipitation Wind Pressure Humidity
00:00 +12°C° 0 mm 1 mps 637 mmHg 94%
01:00 +12°C° 0 mm 1 mps 637 mmHg 94%
02:00 +13°C° 0 mm 1 mps 637 mmHg 95%
03:00 +13°C° 0 mm 1 mps 637 mmHg 95%
04:00 +13°C° 0 mm 1 mps 637 mmHg 95%
05:00 +13°C° 0 mm 1 mps 637 mmHg 95%
06:00 +13°C° 0 mm 1 mps 637 mmHg 95%
07:00 +14°C° 0 mm 1 mps 637 mmHg 91%
08:00 +14°C° 0 mm 1 mps 637 mmHg 87%
09:00 +15°C° 0 mm 1 mps 638 mmHg 83%
10:00 +16°C° 0 mm 2 mps 638 mmHg 80%
11:00 +17°C° 0 mm 2 mps 638 mmHg 76%
12:00 +18°C° 0 mm 2 mps 638 mmHg 72%
13:00 +18°C° 0.2 mm 2 mps 637 mmHg 72%
14:00 +19°C° 0.2 mm 2 mps 637 mmHg 71%
15:00 +19°C° 0.2 mm 2 mps 637 mmHg 71%
16:00 +18°C° 0.2 mm 2 mps 636 mmHg 78%
17:00 +16°C° 0.2 mm 2 mps 636 mmHg 84%
18:00 +15°C° 0.2 mm 2 mps 636 mmHg 91%
19:00 +15°C° 0 mm 1 mps 636 mmHg 92%
20:00 +14°C° 0 mm 1 mps 636 mmHg 93%
21:00 +14°C° 0 mm 1 mps 636 mmHg 94%
22:00 +14°C° 0 mm 1 mps 636 mmHg 94%
23:00 +14°C° 0 mm 1 mps 636 mmHg 93%

24 September, Thursday

Time Temperature Precipitation Wind Pressure Humidity
00:00 +14°C° 0 mm 1 mps 636 mmHg 93%
01:00 +13°C° 0 mm 1 mps 636 mmHg 93%
02:00 +13°C° 0 mm 1 mps 636 mmHg 93%
03:00 +13°C° 0 mm 1 mps 636 mmHg 93%
04:00 +13°C° 0 mm 1 mps 636 mmHg 92%
05:00 +13°C° 0 mm 1 mps 636 mmHg 91%
06:00 +13°C° 0 mm 1 mps 636 mmHg 91%
07:00 +15°C° 0 mm 1 mps 637 mmHg 83%
08:00 +16°C° 0 mm 1 mps 637 mmHg 76%
09:00 +19°C° 0 mm 1 mps 638 mmHg 68%
10:00 +20°C° 0 mm 1 mps 638 mmHg 63%
11:00 +21°C° 0 mm 2 mps 638 mmHg 59%
12:00 +23°C° 0 mm 2 mps 638 mmHg 54%
13:00 +23°C° 0.4 mm 2 mps 638 mmHg 54%
14:00 +23°C° 0.4 mm 2 mps 638 mmHg 55%
15:00 +23°C° 0.4 mm 2 mps 637 mmHg 55%
16:00 +21°C° 0.2 mm 2 mps 637 mmHg 64%
17:00 +19°C° 0.2 mm 2 mps 636 mmHg 73%
18:00 +18°C° 0.2 mm 1 mps 635 mmHg 82%
19:00 +16°C° 0 mm 1 mps 635 mmHg 85%
20:00 +15°C° 0 mm 1 mps 636 mmHg 87%
21:00 +14°C° 0 mm 1 mps 636 mmHg 89%
22:00 +14°C° 0 mm 1 mps 635 mmHg 89%
23:00 +14°C° 0 mm 1 mps 635 mmHg 89%

25 September, Friday

Time Temperature Precipitation Wind Pressure Humidity
00:00 +13°C° 0 mm 1 mps 635 mmHg 90%
01:00 +13°C° 0 mm 1 mps 635 mmHg 89%
02:00 +13°C° 0 mm 1 mps 635 mmHg 88%
03:00 +13°C° 0 mm 1 mps 635 mmHg 87%
04:00 +13°C° 0 mm 1 mps 635 mmHg 87%
05:00 +13°C° 0 mm 1 mps 635 mmHg 87%
06:00 +13°C° 0 mm 1 mps 635 mmHg 87%
07:00 +15°C° 0 mm 1 mps 636 mmHg 80%
08:00 +18°C° 0 mm 1 mps 636 mmHg 72%
09:00 +20°C° 0 mm 1 mps 637 mmHg 65%
10:00 +21°C° 0 mm 1 mps 637 mmHg 60%
11:00 +21°C° 0 mm 2 mps 637 mmHg 56%
12:00 +24°C° 0 mm 2 mps 637 mmHg 51%
13:00 +24°C° 0.1 mm 2 mps 636 mmHg 51%
14:00 +24°C° 0.1 mm 2 mps 636 mmHg 52%
15:00 +23°C° 0.1 mm 2 mps 636 mmHg 52%
16:00 +20°C° 0 mm 2 mps 635 mmHg 62%
17:00 +18°C° 0 mm 2 mps 634 mmHg 71%
18:00 +16°C° 0 mm 2 mps 633 mmHg 81%
19:00 +15°C° 0 mm 2 mps 633 mmHg 83%
20:00 +14°C° 0 mm 1 mps 633 mmHg 85%
21:00 +13°C° 0 mm 1 mps 633 mmHg 88%
22:00 +13°C° 0 mm 1 mps 633 mmHg 87%
23:00 +13°C° 0 mm 1 mps 633 mmHg 87%
Show more